FW3224 Weather Reports


Display with metric or nautical units.
time (UTC)temp
F
wind
direction
speed
MPH
gust
MPH
rain 1hr
in
rain 24hr
in
rain mn
in
humidity
%
barometer
mb
20260510231153 62 221 1.0 5.0 0.00 0.53 0.53 97 1032.0
20260510230550 62 177 0.0 5.0 0.00 0.53 0.53 97 1032.0
20260510230059 61 188 1.0 6.0 0.00 0.53 0.53 97 1032.0
20260510225549 61 211 0.0 5.0 0.00 0.53 0.53 97 1031.9
20260510225048 61 153 2.0 5.0 0.00 0.53 0.53 97 1032.0
20260510224548 61 140 2.0 6.0 0.00 0.53 0.53 97 1031.9
20260510224047 61 157 2.0 6.0 0.00 0.53 0.53 97 1031.8
20260510223549 60 204 2.0 6.0 0.00 0.53 0.53 97 1031.8
20260510223046 60 206 2.0 6.0 0.00 0.53 0.53 98 1031.9
20260510222545 60 173 2.0 6.0 0.00 0.53 0.53 97 1031.7
20260510222044 60 182 0.0 4.0 0.00 0.53 0.53 97 1031.7
20260510221544 60 213 0.0 4.0 0.00 0.53 0.53 97 1031.7
20260510221043 60 163 0.0 4.0 0.00 0.53 0.53 97 1031.7
20260510220542 60 205 0.0 4.0 0.00 0.53 0.53 97 1031.7
20260510220041 59 172 0.0 3.0 0.00 0.53 0.53 97 1031.6
20260510215540 59 175 0.0 3.0 0.00 0.53 0.53 97 1031.6
20260510215038 59 175 0.0 3.0 0.00 0.53 0.53 97 1031.7
20260510214537 59 200 1.0 4.0 0.00 0.53 0.53 97 1031.6
20260510214036 59 130 1.0 4.0 0.00 0.53 0.53 97 1031.6
20260510213535 60 171 1.0 4.0 0.00 0.53 0.53 97 1031.5
20260510213034 60 196 0.0 3.0 0.01 0.53 0.53 97 1031.5
20260510212536 59 182 0.0 5.0 0.01 0.53 0.53 97 1031.3
20260510212035 59 186 2.0 5.0 0.01 0.53 0.53 97 1031.1
20260510211533 59 148 1.0 4.0 0.01 0.53 0.53 97 1031.2
20260510211035 59 217 1.0 4.0 0.01 0.53 0.53 97 1031.1
20260510210532 59 265 0.0 2.0 0.01 0.53 0.53 97 1031.1
20260510210030 59 215 0.0 3.0 0.01 0.53 0.53 97 1031.0
20260510205530 59 239 0.0 3.0 0.01 0.53 0.53 97 1031.0
20260510205028 59 208 0.0 3.0 0.01 0.53 0.53 97 1030.9
20260510204541 59 204 0.0 3.0 0.01 0.53 0.53 97 1030.7
20260510204026 59 251 0.0 3.0 0.02 0.53 0.53 97 1030.6
20260510203525 59 205 0.0 2.0 0.02 0.53 0.53 97 1030.6
20260510203027 59 152 0.0 2.0 0.01 0.52 0.52 97 1030.6
20260510202523 59 157 0.0 3.0 0.01 0.52 0.52 97 1030.5
20260510202027 59 206 1.0 4.0 0.01 0.52 0.52 97 1030.5
20260510201523 59 184 0.0 4.0 0.01 0.52 0.52 97 1030.4
20260510201023 59 273 0.0 4.0 0.01 0.52 0.52 97 1030.3
20260510200522 59 252 0.0 3.0 0.01 0.52 0.52 97 1030.3
20260510200021 59 256 1.0 3.0 0.01 0.52 0.52 97 1030.2
20260510195521 59 218 0.0 3.0 0.01 0.52 0.52 97 1030.2
20260510195019 59 153 0.0 4.0 0.03 0.52 0.52 97 1030.1
20260510194518 59 230 0.0 4.0 0.03 0.52 0.52 97 1030.1
20260510194018 59 238 0.0 4.0 0.03 0.51 0.51 97 1030.0
20260510193518 59 300 1.0 4.0 0.03 0.51 0.51 97 1029.9
20260510193021 59 215 0.0 3.0 0.03 0.51 0.51 97 1029.9
20260510192517 59 232 0.0 4.0 0.04 0.51 0.51 97 1029.9
20260510192016 59 232 1.0 4.0 0.05 0.51 0.51 97 1029.8
20260510191516 59 226 0.0 4.0 0.08 0.51 0.51 97 1029.8
20260510191016 59 211 0.0 2.0 0.11 0.51 0.51 97 1029.9
20260510190519 59 306 0.0 3.0 0.12 0.51 0.51 96 1029.8
20260510190017 59 262 1.0 3.0 0.13 0.51 0.51 96 1029.8
20260510185515 59 202 0.0 3.0 0.14 0.51 0.51 96 1029.8
20260510185015 59 212 0.0 3.0 0.13 0.49 0.49 96 1029.8
20260510184517 59 212 0.0 3.0 0.14 0.49 0.49 96 1029.8
20260510184015 59 190 0.0 3.0 0.13 0.48 0.48 96 1029.7
20260510183514 59 205 0.0 3.0 0.14 0.48 0.48 96 1029.8
20260510183014 59 218 0.0 3.0 0.14 0.48 0.48 96 1029.8
20260510182513 59 196 0.0 2.0 0.14 0.47 0.47 96 1029.8
20260510182014 59 196 0.0 2.0 0.13 0.46 0.46 96 1029.7
20260510181526 59 196 0.0 3.0 0.10 0.42 0.42 96 1029.7
20260510181013 59 234 0.0 4.0 0.08 0.40 0.40 96 1029.7
20260510180514 60 232 2.0 4.0 0.08 0.39 0.39 96 1029.6
20260510180012 60 163 0.0 3.0 0.08 0.38 0.38 96 1029.7
20260510175511 60 160 0.0 3.0 0.08 0.37 0.37 96 1029.7
20260510175011 60 254 0.0 3.0 0.07 0.36 0.36 96 1029.7
20260510174511 60 254 1.0 3.0 0.07 0.35 0.35 96 1029.6
20260510174010 60 209 0.0 2.0 0.08 0.35 0.35 96 1029.6
20260510173511 60 205 0.0 4.0 0.08 0.34 0.34 96 1029.6
20260510173009 60 204 0.0 4.0 0.10 0.34 0.34 96 1029.5
20260510172510 60 184 0.0 2.0 0.12 0.33 0.33 96 1029.5
20260510172010 60 184 0.0 2.0 0.16 0.33 0.33 96 1029.5
20260510171509 60 177 0.0 2.0 0.21 0.32 0.32 95 1029.5
20260510171009 60 152 0.0 2.0 0.23 0.32 0.32 95 1029.5
20260510170509 60 152 0.0 2.0 0.23 0.31 0.31 95 1029.6
20260510170009 60 152 0.0 3.0 0.24 0.30 0.30 95 1029.6
20260510165509 60 145 0.0 4.0 0.24 0.28 0.28 95 1029.6
20260510165009 60 142 0.0 4.0 0.25 0.28 0.28 95 1029.6
20260510164514 60 144 0.0 4.0 0.24 0.28 0.28 95 1029.6
20260510164008 60 128 1.0 3.0 0.23 0.27 0.27 95 1029.6
20260510163507 60 107 0.0 0.0 0.22 0.26 0.26 95 1029.7
20260510163008 60 107 0.0 2.0 0.19 0.23 0.23 95 1029.8
20260510162506 60 107 0.0 2.0 0.18 0.21 0.21 95 1029.7
20260510162006 60 101 0.0 3.0 0.12 0.15 0.15 95 1029.7
20260510161506 60 155 1.0 3.0 0.09 0.11 0.11 94 1029.7
20260510161005 60 153 0.0 0.0 0.08 0.09 0.09 94 1029.7
20260510160505 60 153 0.0 0.0 0.07 0.08 0.08 94 1029.7
20260510160005 60 153 0.0 0.0 0.06 0.06 0.06 94 1029.6
20260510155504 60 153 0.0 1.0 0.05 0.05 0.05 94 1029.7
20260510155004 60 153 0.0 3.0 0.04 0.04 0.04 94 1029.7
20260510154504 60 153 0.0 3.0 0.04 0.04 0.04 93 1029.7
20260510154006 60 111 0.0 5.0 0.04 0.04 0.04 93 1029.7
20260510153505 60 215 1.0 5.0 0.04 0.04 0.04 93 1029.7
20260510153006 60 148 1.0 8.0 0.04 0.04 0.04 93 1029.7
20260510152503 60 139 2.0 8.0 0.03 0.03 0.03 92 1029.7
20260510152003 60 105 0.0 5.0 0.03 0.03 0.03 92 1029.7
20260510151501 60 140 1.0 5.0 0.01 0.01 0.01 91 1029.7
20260510151001 60 161 0.0 2.0 0.01 0.01 0.01 91 1029.7
20260510150502 60 162 0.0 3.0 0.01 0.01 0.01 91 1029.7
20260510150001 60 129 1.0 4.0 0.00 0.00 0.00 91 1029.7
20260510145559 60 121 1.0 4.0 0.00 0.00 0.00 91 1029.7
20260510145059 60 132 2.0 3.0 0.00 0.00 0.00 91 1029.7
20260510144608 60 195 1.0 4.0 0.00 0.00 0.00 91 1029.7
20260510144058 60 155 1.0 4.0 0.00 0.00 0.00 91 1029.7
20260510143556 60 184 0.0 3.0 0.00 0.00 0.00 91 1029.6
20260510143103 60 233 1.0 4.0 0.00 0.00 0.00 91 1029.6
20260510142557 60 144 1.0 7.0 0.00 0.00 0.00 91 1029.5
20260510142058 60 173 1.0 7.0 0.00 0.00 0.00 91 1029.5
20260510141557 60 162 1.0 3.0 0.00 0.00 0.00 91 1029.5
20260510141057 60 134 0.0 4.0 0.00 0.00 0.00 91 1029.6
20260510140555 60 134 1.0 4.0 0.00 0.00 0.00 91 1029.6
20260510140054 60 186 0.0 3.0 0.00 0.00 0.00 90 1029.6
20260510135554 60 188 1.0 5.0 0.00 0.00 0.00 90 1029.7
20260510135054 60 140 0.0 5.0 0.00 0.00 0.00 90 1029.7
20260510134554 60 157 0.0 3.0 0.00 0.00 0.00 90 1029.7
20260510134053 60 137 0.0 3.0 0.00 0.00 0.00 90 1029.6
20260510133554 60 140 0.0 4.0 0.00 0.00 0.00 90 1029.7
20260510133053 60 105 0.0 4.0 0.00 0.00 0.00 90 1029.7
20260510132553 60 194 1.0 4.0 0.00 0.00 0.00 90 1029.7
20260510132053 61 134 1.0 4.0 0.00 0.00 0.00 90 1029.7
20260510131554 61 149 0.0 3.0 0.00 0.00 0.00 90 1029.7
20260510131052 61 202 1.0 2.0 0.00 0.00 0.00 90 1029.7
20260510130552 61 180 0.0 2.0 0.00 0.00 0.00 89 1029.8
20260510130056 61 179 0.0 3.0 0.00 0.00 0.00 90 1029.8
20260510125553 62 161 0.0 3.0 0.00 0.00 0.00 90 1029.8
20260510125051 62 171 0.0 3.0 0.00 0.00 0.00 89 1029.9
20260510124551 62 165 1.0 3.0 0.00 0.00 0.00 89 1030.0
20260510124052 62 132 0.0 4.0 0.00 0.00 0.00 89 1030.0
20260510123551 62 100 1.0 4.0 0.00 0.00 0.00 89 1030.0
20260510123055 62 139 1.0 4.0 0.00 0.00 0.00 89 1029.9
20260510122550 62 157 1.0 3.0 0.00 0.00 0.00 88 1029.9
20260510122050 62 115 1.0 3.0 0.00 0.00 0.00 88 1030.0
20260510121550 62 136 0.0 6.0 0.00 0.00 0.00 88 1030.0
20260510121050 62 103 1.0 6.0 0.00 0.00 0.00 88 1030.0
20260510120552 62 155 2.0 6.0 0.00 0.00 0.00 88 1030.0
20260510120052 62 109 2.0 5.0 0.00 0.00 0.00 88 1030.0
20260510115550 62 124 1.0 4.0 0.00 0.00 0.00 88 1030.0
20260510115049 62 129 1.0 4.0 0.00 0.00 0.00 88 1030.0
20260510114549 62 153 1.0 4.0 0.00 0.00 0.00 88 1030.0
20260510114048 62 105 1.0 4.0 0.00 0.00 0.00 88 1029.9
20260510113550 62 128 1.0 4.0 0.00 0.00 0.00 88 1030.0
20260510113057 62 126 1.0 4.0 0.00 0.00 0.00 88 1029.9
20260510112549 62 121 1.0 4.0 0.00 0.00 0.00 88 1029.9
20260510112049 62 120 1.0 4.0 0.00 0.00 0.00 87 1030.0
20260510111549 63 88 1.0 4.0 0.00 0.00 0.00 87 1029.9
20260510111048 63 123 1.0 4.0 0.00 0.00 0.00 87 1029.9
20260510110550 63 136 1.0 4.0 0.00 0.00 0.00 86 1029.9
20260510110048 63 126 1.0 3.0 0.00 0.00 0.00 86 1029.9
20260510105547 63 120 1.0 4.0 0.00 0.00 0.00 85 1030.0
20260510105048 64 103 1.0 6.0 0.00 0.00 0.00 84 1029.9
20260510104547 64 157 1.0 6.0 0.00 0.00 0.00 84 1029.9
20260510104050 64 140 1.0 4.0 0.00 0.00 0.00 83 1029.9
20260510103546 64 165 1.0 4.0 0.00 0.00 0.00 82 1029.9
20260510103046 64 154 2.0 4.0 0.00 0.00 0.00 82 1029.9
20260510102546 64 123 1.0 6.0 0.00 0.00 0.00 82 1029.9
20260510102046 64 120 1.0 5.0 0.00 0.00 0.00 82 1029.9
20260510101554 64 148 1.0 5.0 0.00 0.00 0.00 82 1029.8
20260510101048 64 221 2.0 4.0 0.00 0.00 0.00 82 1029.8
20260510100544 64 142 1.0 5.0 0.00 0.00 0.00 82 1029.7
20260510100044 65 153 2.0 6.0 0.00 0.00 0.00 82 1029.7
20260510095544 65 130 3.0 8.0 0.00 0.00 0.00 82 1029.7
20260510095043 65 117 3.0 8.0 0.00 0.00 0.00 83 1029.6
20260510094544 65 149 2.0 6.0 0.00 0.00 0.00 83 1029.5
20260510094041 65 110 2.0 5.0 0.00 0.00 0.00 84 1029.5
20260510093541 65 128 2.0 5.0 0.00 0.00 0.00 84 1029.4
20260510093045 65 164 1.0 5.0 0.00 0.00 0.00 84 1029.4
20260510092540 65 145 1.0 10.0 0.00 0.00 0.00 84 1029.3
20260510092040 65 138 3.0 10.0 0.00 0.00 0.00 85 1029.4
20260510091543 65 83 2.0 5.0 0.00 0.00 0.00 85 1029.3
20260510091039 65 149 1.0 4.0 0.00 0.00 0.00 86 1029.2
20260510090539 65 163 1.0 6.0 0.00 0.00 0.00 86 1029.2
20260510090040 65 146 1.0 7.0 0.00 0.00 0.00 87 1029.1
20260510085543 64 142 1.0 5.0 0.00 0.00 0.00 87 1029.0
20260510085037 65 143 1.0 6.0 0.00 0.00 0.00 87 1029.0
20260510084540 65 121 1.0 6.0 0.00 0.00 0.00 86 1028.9
20260510084037 65 121 2.0 6.0 0.00 0.00 0.00 86 1028.8
20260510083536 65 113 0.0 6.0 0.00 0.00 0.00 1028.8
20260510083035 0 0.0 0.0 0.00 0.00 0.00 1028.8
20260510082532 0 0.0 0.0 0.00 0.00 0.00 1028.7
20260510082031 0 0.0 0.0 0.00 0.00 0.00 1028.7
20260510081530 0 0.0 0.0 0.00 0.00 0.00 1028.6
20260510081030 0 0.0 0.0 0.00 0.00 0.00 1028.5
20260510080527 0 0.0 0.0 0.00 0.00 0.00 1028.5
20260510080033 0 0.0 0.0 0.00 0.00 0.00 1028.4
20260510075524 0 0.0 0.0 0.00 0.00 0.00 1028.4
20260510075023 0 0.0 0.0 0.00 0.00 0.00 1028.4
20260510074522 0 0.0 0.0 0.00 0.00 0.00 1028.3
20260510074020 0 0.0 0.0 0.00 0.00 0.00 1028.3
20260510073518 0 0.0 0.0 0.00 0.00 0.00 1028.3
20260510073022 0 0.0 0.0 0.00 0.00 0.00 1028.3
20260510072516 0 0.0 0.0 0.00 0.00 0.00 1028.2
20260510072017 0 0.0 0.0 0.00 0.00 0.00 1028.2
20260510071513 0 0.0 0.0 0.00 0.00 0.00 1028.2
20260510071011 0 0.0 0.0 0.00 0.00 0.00 1028.2
20260510070610 0 0.0 0.0 0.00 0.00 0.00 1028.0
20260510070009 0 0.0 0.0 0.00 0.00 0.00 1027.9
20260510065507 0 0.0 0.0 0.00 0.00 0.00 1027.9
20260510065009 0 0.0 0.0 0.00 0.00 0.00 1027.9
20260510064515 0 0.0 0.0 0.00 0.00 0.00 1027.8
20260510064002 0 0.0 0.0 0.00 0.00 0.00 1027.8
20260510063502 67 108 3.0 8.0 0.00 0.00 0.00 78 1027.7
20260510063002 67 108 3.0 8.0 0.00 0.00 0.00 78 1027.7
20260510062501 67 64 2.0 8.0 0.00 0.00 0.00 78 1027.6
20260510062001 67 142 3.0 10.0 0.00 0.00 0.00 77 1027.6
20260510061502 68 160 4.0 10.0 0.00 0.00 0.00 76 1027.6
20260510061002 68 144 3.0 9.0 0.00 0.00 0.00 75 1027.5
20260510060503 69 109 2.0 8.0 0.00 0.00 0.00 75 1027.4
20260510060003 69 128 2.0 7.0 0.00 0.00 0.00 75 1027.4
20260510055500 68 131 1.0 8.0 0.00 0.00 0.00 76 1027.3
20260510055100 68 145 2.0 6.0 0.00 0.00 0.00 76 1027.3
20260510054605 68 88 2.0 6.0 0.00 0.00 0.00 75 1027.2
20260510054100 68 104 2.0 11.0 0.00 0.00 0.00 75 1027.2
20260510053559 68 101 3.0 11.0 0.00 0.00 0.00 73 1027.1
20260510053059 69 100 3.0 10.0 0.00 0.00 0.00 73 1027.1
20260510052559 69 136 3.0 10.0 0.00 0.00 0.00 72 1027.1
20260510052102 69 89 2.0 10.0 0.00 0.00 0.00 71 1027.0
20260510051604 69 96 2.0 8.0 0.00 0.00 0.00 70 1027.0
20260510051101 69 109 2.0 8.0 0.00 0.00 0.00 69 1026.9
20260510050557 69 148 3.0 8.0 0.00 0.00 0.00 69 1026.8
20260510045601 69 91 3.0 11.0 0.00 0.00 0.00 68 1026.8
20260510045057 69 90 3.0 10.0 0.00 0.00 0.00 68 1026.8
20260510044557 69 143 3.0 10.0 0.00 0.00 0.00 68 1026.7
20260510044056 69 92 3.0 10.0 0.00 0.00 0.00 69 1026.7
20260510043556 69 108 3.0 9.0 0.00 0.00 0.00 68 1026.8
20260510043056 69 100 3.0 9.0 0.00 0.00 0.00 67 1026.7
20260510042559 70 109 2.0 6.0 0.00 0.00 0.00 67 1026.7
20260510042055 70 138 2.0 9.0 0.00 0.00 0.00 68 1026.6
20260510041554 70 95 3.0 9.0 0.00 0.00 0.00 67 1026.6
20260510041054 69 50 2.0 8.0 0.00 0.00 0.00 69 1026.7
20260510040554 68 129 2.0 6.0 0.00 0.00 0.00 70 1026.6
20260510040054 68 98 2.0 9.0 0.00 0.00 0.00 70 1026.6
20260510035553 68 69 3.0 9.0 0.00 0.00 0.00 69 1026.6
20260510035053 68 100 3.0 9.0 0.00 0.00 0.00 69 1026.6
20260510034614 68 95 3.0 9.0 0.00 0.00 0.00 69 1026.6
20260510034053 68 121 3.0 8.0 0.00 0.00 0.00 68 1026.6
20260510033553 68 88 2.0 8.0 0.00 0.00 0.00 67 1026.7
20260510033058 69 80 2.0 6.0 0.00 0.00 0.00 67 1026.7
20260510032552 69 95 2.0 5.0 0.00 0.00 0.00 67 1026.8
20260510032053 69 205 2.0 8.0 0.00 0.00 0.00 68 1026.8
20260510031553 69 75 2.0 8.0 0.00 0.00 0.00 67 1026.8
20260510031053 68 76 2.0 6.0 0.00 0.00 0.00 67 1026.9
20260510030551 0 0.0 0.0 0.00 0.00 0.00 1026.9
20260510030053 0 0.0 0.0 0.00 0.00 0.00 1026.9
20260510025549 0 0.0 0.0 0.00 0.00 0.00 1027.0
20260510025048 69 100 2.0 8.0 0.00 0.00 0.00 65 1027.0
20260510024548 69 100 2.0 8.0 0.00 0.00 0.00 65 1027.0
20260510024046 69 86 3.0 8.0 0.00 0.00 0.00 65 1027.0
20260510023547 70 92 2.0 7.0 0.00 0.00 0.00 66 1027.0
20260510023047 70 96 2.0 7.0 0.00 0.00 0.00 66 1027.1
20260510022547 70 127 2.0 7.0 0.00 0.00 0.00 65 1027.1
20260510022046 69 149 1.0 6.0 0.00 0.00 0.00 66 1027.2
20260510021557 70 112 3.0 6.0 0.00 0.00 0.00 65 1027.2
20260510021046 70 90 2.0 7.0 0.00 0.00 0.00 65 1027.2
20260510020544 70 106 2.0 5.0 0.00 0.00 0.00 65 1027.3
20260510020044 70 136 2.0 6.0 0.00 0.00 0.00 65 1027.4
20260510015542 69 96 2.0 7.0 0.00 0.00 0.00 65 1027.5
20260510015042 70 188 2.0 6.0 0.00 0.00 0.00 64 1027.5
20260510014546 70 136 1.0 6.0 0.00 0.00 0.00 65 1027.6
20260510014042 69 132 2.0 6.0 0.00 0.00 0.00 64 1027.6
20260510013541 70 93 1.0 6.0 0.00 0.00 0.00 63 1027.7
20260510013039 69 146 1.0 8.0 0.00 0.00 0.00 62 1027.7
20260510012539 70 190 3.0 8.0 0.00 0.00 0.00 61 1027.7
20260510012039 70 117 2.0 4.0 0.00 0.00 0.00 62 1027.9
20260510011538 69 123 1.0 4.0 0.00 0.00 0.00 64 1027.9
20260510011036 69 189 1.0 3.0 0.00 0.00 0.00 64 1027.9
20260510010535 68 207 1.0 6.0 0.00 0.00 0.00 64 1028.0
20260510010039 68 107 2.0 6.0 0.00 0.00 0.00 63 1028.1
20260510005535 68 88 1.0 4.0 0.00 0.00 0.00 62 1028.1
20260510005033 68 93 1.0 4.0 0.00 0.00 0.00 64 1028.2
20260510004533 68 45 1.0 4.0 0.00 0.00 0.00 64 1028.3
20260510004031 68 119 1.0 4.0 0.00 0.00 0.00 65 1028.2
20260510003530 67 163 0.0 7.0 0.00 0.00 0.00 67 1028.3
20260510003030 67 182 1.0 7.0 0.00 0.00 0.00 67 1028.3
20260510002528 67 126 2.0 7.0 0.00 0.00 0.00 67 1028.3
20260510002027 66 177 3.0 5.0 0.00 0.00 0.00 68 1028.3
20260510001525 66 171 0.0 5.0 0.00 0.00 0.00 70 1028.3
20260510001024 66 140 1.0 5.0 0.00 0.00 0.00 71 1028.2
20260510000523 65 171 1.0 5.0 0.00 0.00 0.00 72 1028.2
20260510000022 65 204 1.0 4.0 0.00 0.00 0.00 73 1028.2
20260509235520 64 227 0.0 4.0 0.00 0.00 0.00 74 1028.1
20260509235019 64 247 1.0 4.0 0.00 0.00 0.00 75 1028.1
20260509234518 64 234 1.0 4.0 0.00 0.00 0.00 75 1028.1
20260509234017 63 258 2.0 4.0 0.00 0.00 0.00 75 1028.0
20260509233515 63 171 1.0 4.0 0.00 0.00 0.00 75 1028.0
20260509233019 63 231 2.0 4.0 0.00 0.00 0.00 76 1027.9
20260509232514 63 209 2.0 4.0 0.00 0.00 0.00 77 1027.9
20260509232011 63 212 1.0 4.0 0.00 0.00 0.00 78 1027.9
20260509231512 63 205 2.0 4.0 0.00 0.00 0.00 77 1027.9